| time (UTC) | temp F | wind direction | speed knots | gust knots | rain 1hr in | rain 24hr in | rain mn in | humidity % | barometer mb |
| 20260902192024 | 76 | 0 | 0.0 | 0.0 | 0.00 | 0.00 | 0.00 | 61 | 1017.1 |
| 20260902191503 | 76 | 0 | 0.0 | 0.0 | 0.00 | 0.00 | 0.00 | 61 | 1017.0 |
| 20260902191024 | 76 | 0 | 0.0 | 0.0 | 0.00 | 0.00 | 0.00 | 61 | 1017.0 |
| 20260902190524 | 76 | 0 | 0.0 | 0.0 | 0.00 | 0.00 | 0.00 | 60 | 1016.9 |
| 20260902190004 | 76 | 0 | 0.0 | 0.0 | 0.00 | 0.00 | 0.00 | 60 | 1016.9 |
| 20260902185524 | 76 | 0 | 0.0 | 0.0 | 0.00 | 0.00 | 0.00 | 60 | 1016.8 |
| 20260902185003 | 76 | 0 | 0.0 | 0.0 | 0.00 | 0.00 | 0.00 | 60 | 1016.8 |
| 20260902184524 | 77 | 0 | 0.0 | 0.0 | 0.00 | 0.00 | 0.00 | 59 | 1016.7 |
| 20260902184003 | 77 | 0 | 0.0 | 0.0 | 0.00 | 0.00 | 0.00 | 59 | 1016.6 |
| 20260902183524 | 77 | 0 | 0.0 | 0.0 | 0.00 | 0.00 | 0.00 | 59 | 1016.7 |
| 20260902183024 | 77 | 0 | 0.0 | 0.0 | 0.00 | 0.00 | 0.00 | 59 | 1016.7 |
| 20260902182503 | 77 | 0 | 0.0 | 0.0 | 0.00 | 0.00 | 0.00 | 59 | 1016.5 |
| 20260902182004 | 77 | 0 | 0.0 | 0.0 | 0.00 | 0.00 | 0.00 | 58 | 1016.5 |
| 20260902181503 | 78 | 0 | 0.0 | 0.0 | 0.00 | 0.00 | 0.00 | 56 | 1016.6 |
| 20260902181024 | 78 | 0 | 0.0 | 0.0 | 0.00 | 0.00 | 0.00 | 56 | 1016.6 |
| 20260902180503 | 79 | 0 | 0.0 | 0.0 | 0.00 | 0.00 | 0.00 | 55 | 1016.6 |
| 20260902180006 | 79 | 0 | 0.0 | 0.0 | 0.00 | 0.00 | 0.00 | 55 | 1016.4 |
| 20260902175503 | 79 | 0 | 0.0 | 0.0 | 0.00 | 0.00 | 0.00 | 55 | 1016.5 |
| 20260902175003 | 80 | 0 | 0.0 | 0.0 | 0.00 | 0.00 | 0.00 | 55 | 1016.5 |
| 20260902174524 | 80 | 0 | 0.0 | 0.0 | 0.00 | 0.00 | 0.00 | 54 | 1016.4 |
| 20260902174003 | 81 | 0 | 0.0 | 0.0 | 0.00 | 0.00 | 0.00 | 54 | 1016.2 |
| 20260902173524 | 81 | 0 | 0.0 | 0.0 | 0.00 | 0.00 | 0.00 | 53 | 1016.3 |
| 20260902173024 | 82 | 0 | 0.0 | 0.0 | 0.00 | 0.00 | 0.00 | 50 | 1016.3 |
| 20260902172503 | 83 | 0 | 0.0 | 0.0 | 0.00 | 0.00 | 0.00 | 48 | 1016.3 |
| 20260902172004 | 83 | 0 | 0.0 | 0.0 | 0.00 | 0.00 | 0.00 | 46 | 1016.3 |
| 20260902171503 | 84 | 0 | 0.0 | 0.0 | 0.00 | 0.00 | 0.00 | 45 | 1016.4 |
| 20260902171003 | 85 | 0 | 0.0 | 0.0 | 0.00 | 0.00 | 0.00 | 45 | 1016.4 |
| 20260902170503 | 85 | 0 | 0.0 | 0.0 | 0.00 | 0.00 | 0.00 | 44 | 1016.5 |
| 20260902170003 | 85 | 0 | 0.0 | 0.0 | 0.00 | 0.00 | 0.00 | 44 | 1016.4 |
| 20260902165503 | 85 | 0 | 0.0 | 0.0 | 0.00 | 0.00 | 0.00 | 44 | 1016.3 |
| 20260902165003 | 85 | 0 | 0.0 | 0.0 | 0.00 | 0.00 | 0.00 | 44 | 1016.4 |
| 20260902164503 | 85 | 0 | 0.0 | 0.0 | 0.00 | 0.00 | 0.00 | 43 | 1016.4 |
| 20260902164024 | 85 | 315 | 0.0 | 1.7 | 0.00 | 0.00 | 0.00 | 44 | 1016.3 |
| 20260902163503 | 85 | 315 | 0.0 | 1.7 | 0.00 | 0.00 | 0.00 | 44 | 1016.4 |
| 20260902163003 | 85 | 292 | 0.9 | 2.6 | 0.00 | 0.00 | 0.00 | 44 | 1016.3 |
| 20260902162504 | 85 | 278 | 0.9 | 3.5 | 0.00 | 0.00 | 0.00 | 44 | 1016.2 |
| 20260902162024 | 85 | 280 | 0.9 | 3.5 | 0.00 | 0.00 | 0.00 | 44 | 1016.4 |
| 20260902161503 | 86 | 315 | 0.0 | 1.7 | 0.00 | 0.00 | 0.00 | 45 | 1016.2 |
| 20260902161024 | 86 | 315 | 0.0 | 1.7 | 0.00 | 0.00 | 0.00 | 45 | 1016.3 |
| 20260902160503 | 85 | 0 | 0.0 | 0.0 | 0.00 | 0.00 | 0.00 | 44 | 1016.4 |
| 20260902160005 | 85 | 360 | 0.0 | 1.7 | 0.00 | 0.00 | 0.00 | 44 | 1016.3 |
| 20260902155503 | 85 | 329 | 0.9 | 2.6 | 0.00 | 0.00 | 0.00 | 45 | 1016.4 |
| 20260902155003 | 86 | 310 | 0.0 | 2.6 | 0.00 | 0.00 | 0.00 | 45 | 1016.5 |
| 20260902154524 | 85 | 298 | 1.7 | 4.3 | 0.00 | 0.00 | 0.00 | 44 | 1016.5 |
| 20260902154003 | 85 | 304 | 2.6 | 4.3 | 0.00 | 0.00 | 0.00 | 43 | 1016.6 |
| 20260902153503 | 85 | 306 | 0.9 | 3.5 | 0.00 | 0.00 | 0.00 | 43 | 1016.6 |
| 20260902153003 | 85 | 267 | 0.0 | 1.7 | 0.00 | 0.00 | 0.00 | 43 | 1016.8 |
| 20260902152524 | 85 | 0 | 0.0 | 0.0 | 0.00 | 0.00 | 0.00 | 44 | 1016.6 |
| 20260902152003 | 84 | 0 | 0.0 | 0.0 | 0.00 | 0.00 | 0.00 | 44 | 1016.7 |
| 20260902151503 | 85 | 0 | 0.0 | 0.0 | 0.00 | 0.00 | 0.00 | 43 | 1016.9 |
| 20260902151024 | 85 | 0 | 0.0 | 0.0 | 0.00 | 0.00 | 0.00 | 43 | 1016.6 |
| 20260902150503 | 86 | 315 | 0.0 | 1.7 | 0.00 | 0.00 | 0.00 | 44 | 1016.7 |
| 20260902150003 | 86 | 297 | 0.9 | 6.1 | 0.00 | 0.00 | 0.00 | 44 | 1016.9 |
| 20260902145503 | 85 | 295 | 0.9 | 6.1 | 0.00 | 0.00 | 0.00 | 43 | 1016.9 |
| 20260902145003 | 85 | 315 | 0.9 | 3.5 | 0.00 | 0.00 | 0.00 | 43 | 1017.0 |
| 20260902144503 | 85 | 315 | 2.6 | 3.5 | 0.00 | 0.00 | 0.00 | 43 | 1017.0 |
| 20260902144003 | 86 | 315 | 1.7 | 3.5 | 0.00 | 0.00 | 0.00 | 43 | 1017.0 |
| 20260902143503 | 87 | 0 | 0.0 | 0.0 | 0.00 | 0.00 | 0.00 | 43 | 1016.9 |
| 20260902143003 | 87 | 0 | 0.0 | 0.0 | 0.00 | 0.00 | 0.00 | 43 | 1017.0 |
| 20260902142503 | 87 | 247 | 0.0 | 0.9 | 0.00 | 0.00 | 0.00 | 43 | 1017.0 |
| 20260902142003 | 87 | 294 | 0.0 | 0.9 | 0.00 | 0.00 | 0.00 | 42 | 1017.0 |
| 20260902141524 | 87 | 278 | 0.9 | 5.2 | 0.00 | 0.00 | 0.00 | 43 | 1016.9 |
| 20260902141003 | 87 | 308 | 3.5 | 5.2 | 0.00 | 0.00 | 0.00 | 43 | 1017.1 |
| 20260902140503 | 87 | 315 | 3.5 | 5.2 | 0.00 | 0.00 | 0.00 | 44 | 1017.0 |
| 20260902140003 | 87 | 311 | 0.9 | 5.2 | 0.00 | 0.00 | 0.00 | 44 | 1017.2 |
| 20260902135503 | 87 | 311 | 0.9 | 3.5 | 0.00 | 0.00 | 0.00 | 44 | 1017.3 |
| 20260902135003 | 87 | 290 | 2.6 | 6.1 | 0.00 | 0.00 | 0.00 | 44 | 1017.1 |
| 20260902134503 | 87 | 282 | 1.7 | 6.1 | 0.00 | 0.00 | 0.00 | 44 | 1017.4 |
| 20260902134003 | 87 | 315 | 0.0 | 1.7 | 0.00 | 0.00 | 0.00 | 45 | 1017.1 |
| 20260902133524 | 86 | 315 | 0.9 | 6.1 | 0.00 | 0.00 | 0.00 | 44 | 1017.2 |
| 20260902133003 | 86 | 315 | 1.7 | 6.1 | 0.00 | 0.00 | 0.00 | 44 | 1017.3 |
| 20260902132503 | 87 | 271 | 2.6 | 5.2 | 0.00 | 0.00 | 0.00 | 44 | 1017.2 |
| 20260902132003 | 86 | 269 | 3.5 | 6.1 | 0.00 | 0.00 | 0.00 | 44 | 1017.3 |
| 20260902131503 | 86 | 274 | 3.5 | 6.1 | 0.00 | 0.00 | 0.00 | 44 | 1017.3 |
| 20260902131003 | 87 | 283 | 2.6 | 6.1 | 0.00 | 0.00 | 0.00 | 44 | 1017.4 |
| 20260902130503 | 87 | 305 | 0.9 | 0.9 | 0.00 | 0.00 | 0.00 | 46 | 1017.5 |
| 20260902130003 | 87 | 249 | 1.7 | 5.2 | 0.00 | 0.00 | 0.00 | 46 | 1017.5 |
| 20260902125524 | 86 | 247 | 1.7 | 5.2 | 0.00 | 0.00 | 0.00 | 46 | 1017.6 |
| 20260902125024 | 86 | 226 | 0.9 | 5.2 | 0.00 | 0.00 | 0.00 | 47 | 1017.8 |
| 20260902124524 | 86 | 233 | 1.7 | 5.2 | 0.00 | 0.00 | 0.00 | 47 | 1017.8 |
| 20260902124003 | 86 | 270 | 0.9 | 4.3 | 0.00 | 0.00 | 0.00 | 46 | 1017.7 |
| 20260902123503 | 86 | 245 | 0.9 | 2.6 | 0.00 | 0.00 | 0.00 | 47 | 1017.9 |
| 20260902123003 | 86 | 133 | 0.9 | 2.6 | 0.00 | 0.00 | 0.00 | 48 | 1017.8 |
| 20260902122503 | 85 | 360 | 0.0 | 1.7 | 0.00 | 0.00 | 0.00 | 50 | 1017.9 |
| 20260902122003 | 85 | 10 | 0.9 | 5.2 | 0.00 | 0.00 | 0.00 | 50 | 1017.9 |
| 20260902121503 | 85 | 14 | 0.9 | 5.2 | 0.00 | 0.00 | 0.00 | 50 | 1018.0 |
| 20260902121003 | 85 | 0 | 0.0 | 0.0 | 0.00 | 0.00 | 0.00 | 50 | 1017.9 |
| 20260902120503 | 84 | 0 | 0.0 | 0.0 | 0.00 | 0.00 | 0.00 | 50 | 1018.0 |
| 20260902120003 | 84 | 0 | 0.0 | 0.0 | 0.00 | 0.00 | 0.00 | 50 | 1018.3 |
| 20260902115524 | 84 | 0 | 0.0 | 0.0 | 0.00 | 0.00 | 0.00 | 50 | 1018.3 |
| 20260902115003 | 84 | 0 | 0.0 | 0.0 | 0.00 | 0.00 | 0.00 | 50 | 1018.5 |
| 20260902114505 | 84 | 247 | 0.0 | 1.7 | 0.00 | 0.00 | 0.00 | 50 | 1018.3 |
| 20260902114005 | 85 | 227 | 0.9 | 3.5 | 0.00 | 0.00 | 0.00 | 50 | 1018.4 |
| 20260902113505 | 85 | 195 | 0.9 | 3.5 | 0.00 | 0.00 | 0.00 | 50 | 1018.5 |
| 20260902113026 | 85 | 91 | 0.9 | 3.5 | 0.00 | 0.00 | 0.00 | 51 | 1018.6 |
| 20260902112505 | 85 | 174 | 0.9 | 4.3 | 0.00 | 0.00 | 0.00 | 51 | 1018.6 |
| 20260902112005 | 84 | 244 | 1.7 | 4.3 | 0.00 | 0.00 | 0.00 | 51 | 1018.6 |
| 20260902111505 | 84 | 294 | 1.7 | 4.3 | 0.00 | 0.00 | 0.00 | 51 | 1018.7 |
| 20260902111005 | 83 | 313 | 2.6 | 4.3 | 0.00 | 0.04 | 0.00 | 52 | 1018.7 |
| 20260902110505 | 83 | 299 | 2.6 | 4.3 | 0.00 | 0.05 | 0.00 | 52 | 1018.8 |
| 20260902110007 | 83 | 258 | 0.9 | 4.3 | 0.00 | 0.05 | 0.00 | 52 | 1018.9 |
| 20260902105505 | 84 | 224 | 0.0 | 0.9 | 0.00 | 0.05 | 0.00 | 53 | 1019.0 |
| 20260902105005 | 83 | 0 | 0.0 | 0.0 | 0.00 | 0.05 | 0.00 | 54 | 1019.0 |
| 20260902104505 | 82 | 0 | 0.0 | 0.0 | 0.00 | 0.05 | 0.00 | 54 | 1019.0 |
| 20260902104005 | 82 | 54 | 0.9 | 2.6 | 0.00 | 0.28 | 0.00 | 54 | 1019.0 |
| 20260902103505 | 81 | 37 | 0.9 | 2.6 | 0.00 | 0.33 | 0.00 | 58 | 1019.0 |
| 20260902103005 | 81 | 32 | 0.9 | 2.6 | 0.00 | 0.69 | 0.00 | 58 | 1019.1 |
| 20260902102505 | 82 | 3 | 0.0 | 1.7 | 0.00 | 0.83 | 0.00 | 55 | 1019.0 |
| 20260902102005 | 81 | 315 | 0.0 | 1.7 | 0.00 | 0.83 | 0.00 | 59 | 1019.1 |
| 20260902101505 | 81 | 0 | 0.0 | 0.0 | 0.00 | 0.83 | 0.00 | 59 | 1019.0 |
| 20260902101005 | 81 | 0 | 0.0 | 0.0 | 0.00 | 0.83 | 0.00 | 59 | 1019.1 |
| 20260902100505 | 81 | 0 | 0.0 | 0.0 | 0.00 | 0.83 | 0.00 | 59 | 1019.2 |
| 20260902100005 | 81 | 178 | 0.9 | 4.3 | 0.00 | 0.83 | 0.00 | 59 | 1019.3 |
| 20260902095505 | 81 | 180 | 0.9 | 4.3 | 0.00 | 0.83 | 0.00 | 59 | 1019.1 |
| 20260902095005 | 82 | 170 | 0.9 | 4.3 | 0.00 | 0.83 | 0.00 | 55 | 1019.2 |
| 20260902094505 | 81 | 0 | 0.0 | 0.0 | 0.00 | 0.83 | 0.00 | 60 | 1019.4 |
| 20260902094005 | 80 | 0 | 0.0 | 0.0 | 0.00 | 0.83 | 0.00 | 61 | 1019.4 |
| 20260902093505 | 80 | 315 | 0.0 | 0.9 | 0.00 | 0.83 | 0.00 | 61 | 1019.5 |
| 20260902093005 | 80 | 315 | 0.9 | 1.7 | 0.00 | 0.83 | 0.00 | 61 | 1019.3 |
| 20260902092505 | 80 | 267 | 0.9 | 3.5 | 0.00 | 0.83 | 0.00 | 60 | 1019.4 |
| 20260902092005 | 80 | 202 | 0.0 | 3.5 | 0.00 | 0.83 | 0.00 | 60 | 1019.5 |
| 20260902091526 | 81 | 202 | 0.0 | 3.5 | 0.00 | 0.83 | 0.00 | 61 | 1019.4 |
| 20260902091005 | 81 | 0 | 0.0 | 0.0 | 0.00 | 0.83 | 0.00 | 61 | 1019.5 |
| 20260902090505 | 80 | 0 | 0.0 | 0.0 | 0.00 | 0.83 | 0.00 | 61 | 1019.5 |
| 20260902090005 | 80 | 179 | 0.9 | 5.2 | 0.00 | 0.83 | 0.00 | 61 | 1019.5 |
| 20260902085505 | 79 | 146 | 2.6 | 5.2 | 0.00 | 0.83 | 0.00 | 60 | 1019.5 |
| 20260902085005 | 80 | 120 | 1.7 | 5.2 | 0.00 | 0.83 | 0.00 | 61 | 1019.4 |
| 20260902084505 | 80 | 157 | 0.9 | 3.5 | 0.00 | 0.83 | 0.00 | 62 | 1019.3 |
| 20260902084005 | 79 | 154 | 0.9 | 3.5 | 0.00 | 0.83 | 0.00 | 62 | 1019.3 |
| 20260902083526 | 79 | 112 | 0.0 | 1.7 | 0.00 | 0.83 | 0.00 | 62 | 1019.3 |
| 20260902083005 | 78 | 176 | 0.0 | 2.6 | 0.00 | 0.84 | 0.00 | 63 | 1019.2 |
| 20260902082505 | 78 | 152 | 0.9 | 3.5 | 0.00 | 0.84 | 0.00 | 62 | 1019.2 |
| 20260902082005 | 78 | 135 | 0.9 | 3.5 | 0.00 | 0.84 | 0.00 | 62 | 1019.2 |
| 20260902081505 | 78 | 0 | 0.0 | 0.0 | 0.00 | 0.84 | 0.00 | 64 | 1019.3 |
| 20260902081005 | 78 | 0 | 0.0 | 0.0 | 0.00 | 0.84 | 0.00 | 65 | 1019.3 |
| 20260902080505 | 77 | 0 | 0.0 | 0.0 | 0.00 | 0.84 | 0.00 | 66 | 1019.3 |
| 20260902080005 | 77 | 0 | 0.0 | 0.0 | 0.00 | 0.84 | 0.00 | 66 | 1019.1 |
| 20260902075505 | 77 | 0 | 0.0 | 0.0 | 0.00 | 0.84 | 0.00 | 69 | 1019.2 |
| 20260902075026 | 77 | 67 | 0.0 | 0.9 | 0.00 | 0.84 | 0.00 | 69 | 1019.2 |
| 20260902074505 | 76 | 30 | 0.9 | 3.5 | 0.00 | 0.84 | 0.00 | 69 | 1019.1 |
| 20260902074005 | 75 | 28 | 0.9 | 3.5 | 0.00 | 0.84 | 0.00 | 68 | 1019.0 |
| 20260902073505 | 75 | 11 | 0.9 | 3.5 | 0.00 | 0.84 | 0.00 | 68 | 1019.2 |
| 20260902073005 | 74 | 12 | 1.7 | 3.5 | 0.00 | 0.84 | 0.00 | 68 | 1019.2 |
| 20260902072505 | 74 | 16 | 0.9 | 3.5 | 0.00 | 0.84 | 0.00 | 68 | 1019.1 |
| 20260902072005 | 75 | 22 | 0.0 | 3.5 | 0.00 | 0.84 | 0.00 | 69 | 1019.2 |
| 20260902071505 | 75 | 51 | 0.9 | 3.5 | 0.00 | 0.84 | 0.00 | 69 | 1019.2 |
| 20260902071026 | 75 | 29 | 1.7 | 3.5 | 0.00 | 0.84 | 0.00 | 69 | 1019.0 |
| 20260902070505 | 76 | 27 | 1.7 | 3.5 | 0.00 | 0.84 | 0.00 | 69 | 1019.1 |
| 20260902070007 | 76 | 51 | 0.9 | 1.7 | 0.00 | 0.84 | 0.00 | 69 | 1018.8 |
| 20260902065526 | 76 | 0 | 0.0 | 0.0 | 0.00 | 0.84 | 0.00 | 70 | 1018.9 |
| 20260902065005 | 75 | 44 | 0.0 | 1.7 | 0.00 | 0.84 | 0.00 | 71 | 1018.8 |
| 20260902064526 | 74 | 44 | 0.0 | 1.7 | 0.00 | 0.84 | 0.00 | 71 | 1018.8 |
| 20260902064005 | 73 | 22 | 0.9 | 3.5 | 0.00 | 0.84 | 0.00 | 72 | 1018.8 |
| 20260902063505 | 73 | 12 | 1.7 | 3.5 | 0.00 | 0.84 | 0.00 | 72 | 1018.6 |
| 20260902063005 | 73 | 1 | 1.7 | 3.5 | 0.00 | 0.84 | 0.00 | 72 | 1018.8 |
| 20260902062505 | 72 | 4 | 0.9 | 3.5 | 0.00 | 0.84 | 0.00 | 73 | 1018.9 |
| 20260902062005 | 72 | 9 | 1.7 | 4.3 | 0.00 | 0.84 | 0.00 | 76 | 1018.7 |
| 20260902061505 | 71 | 13 | 2.6 | 4.3 | 0.00 | 0.84 | 0.00 | 77 | 1018.6 |
| 20260902061005 | 71 | 18 | 1.7 | 4.3 | 0.00 | 0.84 | 0.00 | 77 | 1018.6 |
| 20260902060505 | 70 | 5 | 0.0 | 3.5 | 0.00 | 0.84 | 0.00 | 78 | 1018.7 |
| 20260902060005 | 70 | 15 | 1.7 | 3.5 | 0.00 | 0.84 | 0.00 | 78 | 1018.7 |
| 20260902055505 | 70 | 17 | 1.7 | 3.5 | 0.00 | 0.84 | 0.00 | 78 | 1018.5 |
| 20260902055005 | 70 | 12 | 0.9 | 2.6 | 0.00 | 0.84 | 0.00 | 79 | 1018.5 |
| 20260902054505 | 69 | 11 | 0.9 | 3.5 | 0.00 | 0.84 | 0.00 | 79 | 1018.5 |
| 20260902054026 | 69 | 9 | 0.9 | 3.5 | 0.00 | 0.84 | 0.00 | 79 | 1018.5 |
| 20260902053505 | 69 | 360 | 0.0 | 1.7 | 0.00 | 0.84 | 0.00 | 79 | 1018.4 |
| 20260902053005 | 69 | 0 | 0.0 | 0.0 | 0.00 | 0.84 | 0.00 | 79 | 1018.6 |
| 20260902052526 | 69 | 0 | 0.0 | 0.0 | 0.00 | 0.84 | 0.00 | 79 | 1018.4 |
| 20260902052005 | 69 | 0 | 0.0 | 0.0 | 0.00 | 0.84 | 0.00 | 79 | 1018.4 |
| 20260902051505 | 69 | 0 | 0.0 | 0.0 | 0.00 | 0.84 | 0.00 | 79 | 1018.1 |
| 20260902051026 | 69 | 0 | 0.0 | 0.0 | 0.00 | 0.84 | 0.00 | 79 | 1017.9 |
| 20260902050505 | 69 | 0 | 0.0 | 0.0 | 0.00 | 0.84 | 0.00 | 78 | 1018.1 |
| 20260902050007 | 69 | 0 | 0.0 | 0.0 | 0.00 | 0.84 | 0.00 | 78 | 1018.4 |
| 20260902045505 | 69 | 0 | 0.0 | 0.0 | 0.00 | 0.84 | 0.00 | 78 | 1018.1 |
| 20260902045005 | 69 | 0 | 0.0 | 0.0 | 0.00 | 0.84 | 0.00 | 78 | 1018.0 |
| 20260902044505 | 69 | 15 | 0.0 | 1.7 | 0.00 | 0.84 | 0.00 | 78 | 1018.1 |
| 20260902044005 | 69 | 17 | 0.9 | 1.7 | 0.00 | 0.84 | 0.00 | 78 | 1018.1 |
| 20260902043505 | 69 | 5 | 0.9 | 2.6 | 0.00 | 0.84 | 0.00 | 77 | 1017.9 |
| 20260902043005 | 69 | 2 | 1.7 | 3.5 | 0.00 | 0.84 | 0.00 | 77 | 1018.1 |
| 20260902042526 | 69 | 5 | 2.6 | 3.5 | 0.00 | 0.84 | 0.00 | 76 | 1018.0 |
| 20260902042005 | 69 | 9 | 1.7 | 3.5 | 0.00 | 0.84 | 0.00 | 76 | 1017.9 |
| 20260902041505 | 69 | 19 | 0.0 | 1.7 | 0.00 | 0.84 | 0.00 | 76 | 1017.9 |
| 20260902041005 | 69 | 0 | 0.0 | 0.0 | 0.00 | 0.84 | 0.00 | 76 | 1017.9 |
| 20260902040505 | 70 | 0 | 0.0 | 0.0 | 0.00 | 0.84 | 0.00 | 75 | 1017.9 |
| 20260902040005 | 70 | 0 | 0.0 | 0.0 | 0.00 | 0.84 | 0.00 | 75 | 1018.0 |
| 20260902035505 | 70 | 0 | 0.0 | 0.0 | 0.00 | 0.84 | 0.00 | 75 | 1017.9 |
| 20260902035005 | 70 | 15 | 0.9 | 2.6 | 0.00 | 0.84 | 0.00 | 76 | 1017.9 |
| 20260902034505 | 70 | 17 | 0.9 | 2.6 | 0.00 | 0.84 | 0.00 | 76 | 1017.7 |
| 20260902034005 | 70 | 22 | 0.0 | 2.6 | 0.00 | 0.84 | 0.00 | 76 | 1017.7 |
| 20260902033505 | 70 | 0 | 0.0 | 0.0 | 0.00 | 0.84 | 0.00 | 76 | 1017.9 |
| 20260902033005 | 70 | 0 | 0.0 | 0.0 | 0.00 | 0.84 | 0.00 | 76 | 1018.1 |
| 20260902032505 | 70 | 22 | 0.9 | 2.6 | 0.00 | 0.84 | 0.00 | 76 | 1018.0 |
| 20260902032005 | 70 | 22 | 0.9 | 2.6 | 0.00 | 0.84 | 0.00 | 76 | 1018.1 |
| 20260902031505 | 69 | 0 | 0.0 | 0.0 | 0.00 | 0.84 | 0.00 | 76 | 1018.1 |
| 20260902031005 | 69 | 0 | 0.0 | 0.0 | 0.00 | 0.84 | 0.00 | 75 | 1018.0 |
| 20260902030505 | 69 | 0 | 0.0 | 0.0 | 0.00 | 0.84 | 0.00 | 75 | 1017.9 |
| 20260902030005 | 70 | 11 | 0.0 | 1.7 | 0.00 | 0.84 | 0.00 | 75 | 1018.1 |
| 20260902025505 | 70 | 11 | 0.0 | 1.7 | 0.00 | 0.84 | 0.00 | 75 | 1018.0 |
| 20260902025026 | 70 | 0 | 0.0 | 0.0 | 0.00 | 0.84 | 0.00 | 75 | 1018.0 |
| 20260902024505 | 70 | 0 | 0.0 | 0.0 | 0.00 | 0.84 | 0.00 | 75 | 1017.7 |
| 20260902024005 | 70 | 11 | 1.7 | 3.5 | 0.00 | 0.84 | 0.00 | 74 | 1018.0 |
| 20260902023505 | 70 | 12 | 3.5 | 4.3 | 0.00 | 0.84 | 0.00 | 74 | 1017.9 |
| 20260902023005 | 70 | 16 | 3.5 | 4.3 | 0.00 | 0.84 | 0.00 | 74 | 1018.0 |
| 20260902022505 | 70 | 8 | 2.6 | 4.3 | 0.00 | 0.84 | 0.00 | 74 | 1017.9 |
| 20260902022005 | 70 | 352 | 1.7 | 3.5 | 0.00 | 0.84 | 0.00 | 74 | 1017.9 |
| 20260902021505 | 71 | 6 | 1.7 | 2.6 | 0.00 | 0.84 | 0.00 | 74 | 1017.9 |
| 20260902021005 | 71 | 17 | 1.7 | 2.6 | 0.00 | 0.84 | 0.00 | 74 | 1017.9 |
| 20260902020505 | 71 | 18 | 2.6 | 3.5 | 0.00 | 0.84 | 0.00 | 74 | 1017.9 |
| 20260902020026 | 71 | 17 | 2.6 | 3.5 | 0.00 | 0.84 | 0.00 | 74 | 1017.7 |
| 20260902015505 | 71 | 22 | 0.9 | 3.5 | 0.00 | 0.84 | 0.00 | 74 | 1017.7 |
| 20260902015005 | 70 | 0 | 0.0 | 0.0 | 0.00 | 0.84 | 0.00 | 74 | 1017.8 |
| 20260902014505 | 71 | 22 | 0.0 | 1.7 | 0.00 | 0.84 | 0.00 | 75 | 1017.8 |
| 20260902014005 | 70 | 9 | 0.9 | 2.6 | 0.00 | 0.84 | 0.00 | 75 | 1017.8 |
| 20260902013505 | 70 | 7 | 0.9 | 2.6 | 0.00 | 0.84 | 0.00 | 74 | 1017.8 |
| 20260902013005 | 71 | 0 | 0.0 | 0.0 | 0.00 | 0.84 | 0.00 | 74 | 1017.8 |
| 20260902012505 | 71 | 0 | 0.0 | 0.0 | 0.00 | 0.84 | 0.00 | 74 | 1017.8 |
| 20260902012026 | 71 | 0 | 0.0 | 0.0 | 0.00 | 0.84 | 0.00 | 74 | 1017.9 |
| 20260902011505 | 71 | 0 | 0.0 | 0.0 | 0.00 | 0.84 | 0.00 | 75 | 1017.6 |
| 20260902011005 | 71 | 16 | 1.7 | 4.3 | 0.00 | 0.84 | 0.00 | 75 | 1017.9 |
| 20260902010505 | 71 | 14 | 3.5 | 4.3 | 0.00 | 0.84 | 0.00 | 76 | 1017.8 |
| 20260902010005 | 70 | 9 | 2.6 | 4.3 | 0.00 | 0.84 | 0.00 | 76 | 1017.9 |
| 20260902005505 | 70 | 5 | 0.9 | 3.5 | 0.00 | 0.84 | 0.00 | 76 | 1018.0 |
| 20260902005005 | 70 | 337 | 0.0 | 1.7 | 0.00 | 0.84 | 0.00 | 75 | 1018.0 |
| 20260902004526 | 70 | 337 | 0.0 | 1.7 | 0.00 | 0.84 | 0.00 | 75 | 1017.9 |
| 20260902004005 | 71 | 0 | 0.0 | 0.0 | 0.00 | 0.84 | 0.00 | 75 | 1017.9 |
| 20260902003505 | 71 | 0 | 0.0 | 0.0 | 0.00 | 0.84 | 0.00 | 74 | 1018.0 |
| 20260902003005 | 71 | 0 | 0.0 | 0.0 | 0.00 | 0.84 | 0.00 | 74 | 1017.9 |
| 20260902002526 | 71 | 0 | 0.0 | 0.0 | 0.00 | 0.84 | 0.00 | 74 | 1017.7 |
| 20260902002005 | 71 | 0 | 0.0 | 0.0 | 0.00 | 0.84 | 0.00 | 75 | 1018.0 |
| 20260902001505 | 71 | 360 | 0.0 | 1.7 | 0.00 | 0.84 | 0.00 | 75 | 1018.0 |
| 20260902001005 | 71 | 360 | 0.9 | 1.7 | 0.00 | 0.84 | 0.00 | 75 | 1018.0 |
| 20260902000505 | 71 | 354 | 0.9 | 1.7 | 0.00 | 0.84 | 0.00 | 74 | 1017.7 |
| 20260902000005 | 71 | 325 | 0.0 | 1.7 | 0.00 | 0.84 | 0.00 | 74 | 1018.1 |
| 20260901235505 | 71 | 0 | 0.0 | 0.0 | 0.00 | 0.84 | 0.00 | 74 | 1017.9 |
| 20260901235005 | 71 | 0 | 0.0 | 0.0 | 0.00 | 0.84 | 0.00 | 74 | 1018.0 |
| 20260901234505 | 71 | 360 | 0.0 | 2.6 | 0.00 | 0.84 | 0.00 | 74 | 1018.0 |
| 20260901234005 | 71 | 360 | 0.9 | 2.6 | 0.00 | 0.84 | 0.00 | 74 | 1017.9 |
| 20260901233505 | 71 | 360 | 0.9 | 2.6 | 0.00 | 0.84 | 0.00 | 74 | 1018.0 |
| 20260901233005 | 71 | 360 | 0.0 | 1.7 | 0.00 | 0.84 | 0.00 | 74 | 1017.9 |
| 20260901232505 | 71 | 0 | 0.0 | 0.0 | 0.00 | 0.84 | 0.00 | 73 | 1017.7 |
| 20260901232005 | 72 | 0 | 0.0 | 0.0 | 0.00 | 0.84 | 0.00 | 73 | 1017.9 |
| 20260901231505 | 72 | 0 | 0.0 | 0.0 | 0.00 | 0.84 | 0.00 | 73 | 1018.1 |
| 20260901231003 | 72 | 0 | 0.0 | 0.0 | 0.00 | 0.84 | 0.00 | 73 | 1017.9 |
| 20260901230503 | 72 | 0 | 0.0 | 0.0 | 0.00 | 0.84 | 0.00 | 73 | 1017.9 |
| 20260901230024 | 72 | 15 | 0.9 | 1.7 | 0.00 | 0.84 | 0.00 | 73 | 1018.0 |
| 20260901225503 | 72 | 15 | 0.9 | 1.7 | 0.00 | 0.84 | 0.00 | 72 | 1018.1 |
| 20260901225003 | 72 | 0 | 0.0 | 0.0 | 0.00 | 0.84 | 0.00 | 72 | 1018.1 |
| 20260901224503 | 72 | 0 | 0.0 | 0.0 | 0.00 | 0.84 | 0.00 | 72 | 1017.9 |
| 20260901224003 | 72 | 0 | 0.0 | 0.0 | 0.00 | 0.84 | 0.00 | 72 | 1017.9 |
| 20260901223503 | 72 | 0 | 0.0 | 0.0 | 0.00 | 0.84 | 0.00 | 70 | 1018.1 |
| 20260901223003 | 72 | 32 | 0.0 | 1.7 | 0.00 | 0.84 | 0.00 | 70 | 1017.9 |
| 20260901222503 | 72 | 14 | 1.7 | 3.5 | 0.00 | 0.84 | 0.00 | 70 | 1018.1 |
| 20260901222003 | 72 | 9 | 2.6 | 3.5 | 0.00 | 0.84 | 0.00 | 70 | 1018.0 |
| 20260901221503 | 73 | 356 | 2.6 | 3.5 | 0.00 | 0.84 | 0.00 | 70 | 1018.1 |
| 20260901221003 | 73 | 355 | 2.6 | 3.5 | 0.00 | 0.84 | 0.00 | 70 | 1018.0 |
| 20260901220503 | 73 | 2 | 2.6 | 3.5 | 0.00 | 0.84 | 0.00 | 69 | 1017.9 |
| 20260901220024 | 73 | 8 | 2.6 | 3.5 | 0.00 | 0.84 | 0.00 | 69 | 1018.0 |
| 20260901215503 | 73 | 12 | 1.7 | 3.5 | 0.00 | 0.84 | 0.84 | 69 | 1017.8 |
| 20260901215003 | 73 | 4 | 0.9 | 3.5 | 0.00 | 0.84 | 0.84 | 69 | 1017.9 |
| 20260901214503 | 73 | 347 | 0.0 | 1.7 | 0.00 | 0.84 | 0.84 | 69 | 1018.0 |
| 20260901214003 | 73 | 360 | 0.0 | 1.7 | 0.00 | 0.84 | 0.84 | 68 | 1017.8 |
| 20260901213524 | 73 | 0 | 0.0 | 0.0 | 0.00 | 0.84 | 0.84 | 68 | 1018.0 |
| 20260901213003 | 73 | 0 | 0.0 | 0.0 | 0.00 | 0.84 | 0.84 | 68 | 1018.0 |
| 20260901212503 | 73 | 0 | 0.0 | 0.0 | 0.00 | 0.84 | 0.84 | 68 | 1018.0 |
| 20260901212003 | 73 | 0 | 0.0 | 0.0 | 0.00 | 0.84 | 0.84 | 67 | 1018.0 |
| 20260901211503 | 73 | 0 | 0.0 | 0.0 | 0.00 | 0.84 | 0.84 | 67 | 1018.0 |
| 20260901211003 | 74 | 0 | 0.0 | 0.0 | 0.00 | 0.84 | 0.84 | 66 | 1017.9 |
| 20260901210503 | 74 | 0 | 0.0 | 0.0 | 0.00 | 0.84 | 0.84 | 66 | 1017.8 |
| 20260901210003 | 74 | 0 | 0.0 | 0.0 | 0.00 | 0.84 | 0.84 | 65 | 1017.8 |
| 20260901205503 | 74 | 0 | 0.0 | 0.0 | 0.00 | 0.84 | 0.84 | 65 | 1018.0 |
| 20260901205003 | 74 | 44 | 0.0 | 0.9 | 0.00 | 0.84 | 0.84 | 64 | 1017.9 |
| 20260901204503 | 74 | 30 | 0.0 | 1.7 | 0.00 | 0.84 | 0.84 | 64 | 1018.0 |
| 20260901204003 | 74 | 22 | 0.0 | 1.7 | 0.00 | 0.84 | 0.84 | 63 | 1017.9 |
| 20260901203524 | 75 | 22 | 0.0 | 1.7 | 0.00 | 0.84 | 0.84 | 63 | 1017.8 |
| 20260901203003 | 75 | 0 | 0.0 | 0.0 | 0.00 | 0.84 | 0.84 | 63 | 1017.8 |
| 20260901202503 | 75 | 0 | 0.0 | 0.0 | 0.00 | 0.84 | 0.84 | 63 | 1017.8 |
| 20260901202003 | 75 | 0 | 0.0 | 0.0 | 0.00 | 0.84 | 0.84 | 63 | 1017.8 |
| 20260901201503 | 75 | 0 | 0.0 | 0.0 | 0.00 | 0.84 | 0.84 | 63 | 1017.8 |
| 20260901201003 | 76 | 0 | 0.0 | 0.0 | 0.00 | 0.84 | 0.84 | 62 | 1017.8 |
| 20260901200503 | 76 | 0 | 0.0 | 0.0 | 0.00 | 0.84 | 0.84 | 62 | 1017.7 |
| 20260901200003 | 76 | 0 | 0.0 | 0.0 | 0.00 | 0.84 | 0.84 | 62 | 1017.7 |
| 20260901195503 | 76 | 0 | 0.0 | 0.0 | 0.00 | 0.84 | 0.84 | 62 | 1017.7 |
| 20260901195024 | 76 | 0 | 0.0 | 0.0 | 0.00 | 0.84 | 0.84 | 62 | 1017.8 |
| 20260901194503 | 76 | 0 | 0.0 | 0.0 | 0.00 | 0.84 | 0.84 | 62 | 1017.6 |
| 20260901194003 | 76 | 22 | 0.0 | 1.7 | 0.00 | 0.84 | 0.84 | 62 | 1017.4 |
| 20260901193503 | 76 | 22 | 0.0 | 2.6 | 0.00 | 0.84 | 0.84 | 62 | 1017.5 |
| 20260901193003 | 76 | 22 | 0.0 | 2.6 | 0.00 | 0.84 | 0.84 | 62 | 1017.7 |
| 20260901192503 | 76 | 0 | 0.0 | 0.0 | 0.00 | 0.84 | 0.84 | 62 | 1017.5 |